Weather History for Lincoln, IL

Change the Weather History Date:

Thursday, September 5, 2013

  Actual Average (KSPI) Record (KSPI)
Temperature  
Mean Temperature 71 °F 71 °F  
Max Temperature 87 °F 83 °F 99 °F (1954)
Min Temperature 55 °F 59 °F 44 °F (1974)
Degree Days  
Heating Degree Days 0 1  
Month to date heating degree days 2  
Since 1 July heating degree days 7  
Cooling Degree Days 6 6  
Month to date cooling degree days 34  
Year to date cooling degree days 1004  
Growing Degree Days 21 (Base 50)    
Moisture  
Dew Point 61 °F    
Average Humidity 70    
Maximum Humidity 94    
Minimum Humidity 41    
Precipitation  
Precipitation 0.00 in 0.09 in 1.86 in (1889)
Month to date precipitation 0.47  
Year to date precipitation 26.12  
Snow  
Snow 0.00 in 0.00 in 0.00 in ()
Month to date snowfall 0.0  
Since 1 July snowfall 0.0  
Since 1 September snowfall 0.0  
Snow Depth -    
Sea Level Pressure  
Sea Level Pressure 30.15 in    
Wind  
Wind Speed 1 mph (East)    
Max Wind Speed 5 mph    
Max Gust Speed -    
Visibility 10 miles    
Events      
T = Trace of Precipitation, MM = Missing Value Source: NWS Daily Summary

Daily Weather History Graph

Daily Weather History Graph

Search for Another Location

Airport:

Trip Planner

Search our weather history database for the weather conditions in past years. The results will help you decide how hot, cold, wet, or windy it might be!

Date:

Astronomy

Sep. 05, 2013 Rise Set
Actual Time 6:29 AM CDT 7:22 PM CDT
Civil Twilight 6:01 AM CDT 7:49 PM CDT
Nautical Twilight 5:28 AM CDT 8:22 PM CDT
Astronomical Twilight 4:54 AM CDT 8:56 PM CDT
Moon 6:40 AM CDT (9/5) 7:13 PM CDT (9/5)
Length of Visible Light 13h 48m
Length of Day
12h 53m
New Moon, 0% of the Moon is Illuminated
Sep 5
New Moon
Sep 12
First Quarter
Sep 19
Full
Sep 26
Last Quarter
Oct 4
New

Hourly Weather History & Observations

Time (CDT) Temp. Heat Index Dew Point Humidity Pressure Visibility Wind Dir Wind Speed Gust Speed Precip Events Conditions
12:15 AM 62.2 °F - 58.8 °F 89% 30.12 in 10.0 mi Calm Calm - N/A   Clear
12:35 AM 61.7 °F - 58.5 °F 89% 30.12 in 10.0 mi Calm Calm - N/A   Clear
12:55 AM 62.4 °F - 59.0 °F 89% 30.13 in 10.0 mi Calm Calm - N/A   Clear
1:15 AM 60.8 °F - 58.1 °F 91% 30.13 in 10.0 mi Calm Calm - N/A   Clear
1:35 AM 60.6 °F - 57.6 °F 90% 30.13 in 10.0 mi Calm Calm - N/A   Clear
1:55 AM 59.7 °F - 57.7 °F 93% 30.13 in 10.0 mi Calm Calm - N/A   Clear
2:15 AM 58.5 °F - 55.6 °F 90% 30.14 in 10.0 mi Calm Calm - N/A   Clear
2:35 AM 58.1 °F - 56.3 °F 94% 30.14 in 10.0 mi Calm Calm - N/A   Clear
2:55 AM 59.0 °F - 57.0 °F 93% 30.15 in 10.0 mi Calm Calm - N/A   Clear
3:15 AM 59.5 °F - 57.0 °F 91% 30.15 in 10.0 mi Calm Calm - N/A   Clear
3:35 AM 59.0 °F - 56.5 °F 91% 30.14 in 10.0 mi Calm Calm - N/A   Clear
3:55 AM 59.0 °F - 56.7 °F 92% 30.15 in 10.0 mi Calm Calm - N/A   Clear
4:15 AM 56.7 °F - 54.9 °F 94% 30.15 in 10.0 mi Calm Calm - N/A   Clear
4:35 AM 57.4 °F - 55.6 °F 94% 30.15 in 10.0 mi Calm Calm - N/A   Clear
4:55 AM 56.8 °F - 54.5 °F 92% 30.15 in 10.0 mi Calm Calm - N/A   Clear
5:15 AM 57.2 °F - 55.4 °F 94% 30.16 in 10.0 mi Calm Calm - N/A   Clear
5:35 AM 56.8 °F - 55.0 °F 94% 30.16 in 10.0 mi Calm Calm - N/A   Clear
5:55 AM 55.9 °F - 54.1 °F 94% 30.16 in 10.0 mi Calm Calm - N/A   Clear
6:15 AM 56.7 °F - 54.3 °F 92% 30.16 in 10.0 mi Calm Calm - N/A   Clear
6:35 AM 57.2 °F - 55.4 °F 94% 30.16 in 10.0 mi Calm Calm - N/A   Clear
6:55 AM 57.7 °F - 55.4 °F 92% 30.16 in 10.0 mi Calm Calm - N/A   Clear
7:15 AM 58.5 °F - 55.8 °F 91% 30.17 in 10.0 mi Calm Calm - N/A   Clear
7:35 AM 60.8 °F - 58.1 °F 91% 30.17 in 10.0 mi Calm Calm - N/A   Clear
7:55 AM 62.8 °F - 59.7 °F 90% 30.17 in 10.0 mi Calm Calm - N/A   Clear
8:15 AM 65.5 °F - 61.3 °F 86% 30.17 in 7.0 mi Calm Calm - N/A   Clear
8:35 AM 66.4 °F - 62.1 °F 86% 30.18 in 10.0 mi Calm Calm - N/A   Clear
8:55 AM 69.6 °F - 63.0 °F 79% 30.18 in 10.0 mi Calm Calm - N/A   Clear
9:15 AM 71.2 °F - 62.8 °F 75% 30.19 in 10.0 mi Calm Calm - N/A   Clear
9:35 AM 73.6 °F - 63.7 °F 71% 30.19 in 10.0 mi Calm Calm - N/A   Clear
9:55 AM 75.9 °F - 63.7 °F 66% 30.19 in 10.0 mi Calm Calm - N/A   Clear
10:15 AM 78.1 °F - 62.6 °F 59% 30.19 in 10.0 mi Calm Calm - N/A   Clear
10:35 AM 80.4 °F 81.0 °F 58.8 °F 48% 30.19 in 10.0 mi Calm Calm - N/A   Clear
10:55 AM 81.7 °F 82.2 °F 60.3 °F 48% 30.19 in 10.0 mi Calm Calm - N/A   Clear
11:15 AM 83.7 °F 83.9 °F 61.2 °F 46% 30.19 in 10.0 mi Calm Calm - N/A   Clear
11:35 AM 84.2 °F 84.4 °F 60.4 °F 45% 30.19 in 10.0 mi Calm Calm - N/A   Clear
11:55 AM 83.8 °F 83.6 °F 59.0 °F 43% 30.19 in 10.0 mi ESE 3.5 mph - N/A   Clear
12:15 PM 84.9 °F 84.8 °F 60.1 °F 43% 30.19 in 10.0 mi SE 3.5 mph - N/A   Clear
12:35 PM 84.4 °F 84.6 °F 61.2 °F 45% 30.18 in 10.0 mi NE 3.5 mph - N/A   Clear
12:55 PM 85.5 °F 85.4 °F 60.4 °F 43% 30.18 in 10.0 mi Calm Calm - N/A   Clear
1:15 PM 85.5 °F 85.4 °F 60.4 °F 43% 30.17 in 10.0 mi Calm Calm - N/A   Clear
1:35 PM 86.5 °F 86.3 °F 60.3 °F 41% 30.17 in 10.0 mi SSE 3.5 mph - N/A   Clear
1:55 PM 86.2 °F 85.9 °F 60.1 °F 41% 30.16 in 10.0 mi Calm Calm - N/A   Clear
2:15 PM 86.2 °F 86.3 °F 61.2 °F 43% 30.16 in 10.0 mi East 4.6 mph - N/A   Clear
2:35 PM 86.9 °F 87.0 °F 61.5 °F 42% 30.15 in 10.0 mi Calm Calm - N/A   Clear
2:55 PM 86.9 °F 87.0 °F 61.5 °F 42% 30.14 in 10.0 mi South 4.6 mph - N/A   Clear
3:15 PM 87.4 °F 88.0 °F 62.6 °F 43% 30.14 in 10.0 mi ESE 3.5 mph - N/A   Clear
3:35 PM 87.1 °F 87.5 °F 62.2 °F 43% 30.14 in 10.0 mi Calm Calm - N/A   Clear
3:55 PM 87.1 °F 87.5 °F 62.1 °F 43% 30.14 in 10.0 mi Calm Calm - N/A   Clear
4:15 PM 87.8 °F 88.5 °F 63.0 °F 43% 30.13 in 10.0 mi ESE 4.6 mph - N/A   Clear
4:35 PM 87.3 °F 88.0 °F 62.8 °F 44% 30.13 in 10.0 mi SSE 3.5 mph - N/A   Clear
4:55 PM 85.8 °F 86.6 °F 62.8 °F 46% 30.13 in 10.0 mi South 3.5 mph - N/A   Clear
5:15 PM 86.9 °F 87.5 °F 62.4 °F 44% 30.12 in 10.0 mi Calm Calm - N/A   Clear
5:35 PM 86.9 °F 87.8 °F 63.1 °F 45% 30.12 in 10.0 mi Calm Calm - N/A   Clear
5:55 PM 86.0 °F 87.1 °F 63.3 °F 47% 30.12 in 10.0 mi Calm Calm - N/A   Clear
6:15 PM 85.3 °F 86.4 °F 63.5 °F 48% 30.12 in 10.0 mi Calm Calm - N/A   Clear
6:35 PM 84.0 °F 86.0 °F 65.5 °F 54% 30.12 in 10.0 mi Calm Calm - N/A   Clear
6:55 PM 82.6 °F 83.9 °F 64.0 °F 53% 30.12 in 10.0 mi Calm Calm - N/A   Clear
7:15 PM 81.1 °F 82.9 °F 64.9 °F 58% 30.12 in 10.0 mi Calm Calm - N/A   Clear
7:35 PM 78.8 °F - 65.5 °F 64% 30.12 in 10.0 mi Calm Calm - N/A   Clear
7:55 PM 77.2 °F - 66.9 °F 71% 30.13 in 10.0 mi Calm Calm - N/A   Clear
8:15 PM 75.9 °F - 67.3 °F 74% 30.13 in 10.0 mi Calm Calm - N/A   Clear
8:35 PM 74.8 °F - 66.2 °F 74% 30.14 in 10.0 mi NE 3.5 mph - N/A   Mostly Cloudy
8:55 PM 76.6 °F - 66.2 °F 70% 30.15 in 10.0 mi East 4.6 mph - N/A   Mostly Cloudy
9:15 PM 74.8 °F - 66.2 °F 74% 30.16 in 10.0 mi East 3.5 mph - N/A   Scattered Clouds
9:35 PM 73.0 °F - 66.2 °F 79% 30.16 in 10.0 mi East 3.5 mph - N/A   Clear
9:55 PM 73.4 °F - 65.8 °F 77% 30.16 in 10.0 mi ENE 3.5 mph - N/A   Clear
10:15 PM 71.8 °F - 65.5 °F 80% 30.17 in 10.0 mi ENE 4.6 mph - N/A   Clear
10:35 PM 71.6 °F - 65.3 °F 80% 30.17 in 10.0 mi ENE 4.6 mph - N/A   Clear
10:55 PM 69.1 °F - 64.9 °F 87% 30.17 in 10.0 mi ENE 4.6 mph - N/A   Clear
11:15 PM 68.5 °F - 64.9 °F 88% 30.17 in 10.0 mi ENE 4.6 mph - N/A   Clear
11:35 PM 69.3 °F - 64.8 °F 86% 30.17 in 10.0 mi ENE 3.5 mph - N/A   Clear
11:55 PM 68.9 °F - 64.4 °F 86% 30.17 in 10.0 mi ENE 4.6 mph - N/A   Clear